TimeEST,TemperatureF,Dew PointF,Humidity,Sea Level PressureIn,VisibilityMPH,Wind Direction,Wind SpeedMPH,Gust SpeedMPH,PrecipitationIn,Events,Conditions,WindDirDegrees,DateUTC
12:05 AM,33.8,32.0,93,29.59,10.0,SW,3.5,-,N/A,,Overcast,230,2013-02-28 05:05:00
12:15 AM,33.8,32.0,93,29.59,8.0,Calm,Calm,-,N/A,,Overcast,0,2013-02-28 05:15:00
12:53 AM,33.1,32.0,96,29.60,5.0,WSW,8.1,-,0.00,Snow,Light Snow,250,2013-02-28 05:53:00
1:07 AM,33.8,30.2,87,29.58,2.5,WSW,5.8,-,0.01,Snow,Light Snow,250,2013-02-28 06:07:00
1:14 AM,33.8,30.2,87,29.58,5.0,WSW,5.8,-,0.01,Snow,Light Snow,250,2013-02-28 06:14:00
1:23 AM,33.8,32.0,93,29.58,7.0,SW,4.6,-,0.01,,Overcast,230,2013-02-28 06:23:00
1:41 AM,33.8,30.2,87,29.58,10.0,WSW,8.1,-,0.01,,Overcast,240,2013-02-28 06:41:00
1:53 AM,33.1,30.9,92,29.60,10.0,WSW,11.5,-,0.01,,Overcast,240,2013-02-28 06:53:00
2:14 AM,33.8,30.2,87,29.57,9.0,WSW,10.4,-,0.00,Snow,Light Snow,250,2013-02-28 07:14:00
2:22 AM,33.8,30.2,87,29.57,7.0,WSW,9.2,-,0.00,Snow,Light Snow,250,2013-02-28 07:22:00
2:45 AM,33.8,30.2,87,29.56,5.0,WSW,6.9,-,0.00,Snow,Light Snow,240,2013-02-28 07:45:00
2:53 AM,33.1,30.9,92,29.58,4.0,SW,8.1,-,0.00,Snow,Light Snow,230,2013-02-28 07:53:00
3:19 AM,33.8,30.2,87,29.56,4.0,WSW,9.2,-,0.00,Snow,Light Snow,240,2013-02-28 08:19:00
3:48 AM,33.8,30.2,87,29.55,4.0,WSW,8.1,-,0.00,Snow,Light Snow,240,2013-02-28 08:48:00
3:53 AM,33.1,30.9,92,29.57,4.0,SW,6.9,-,0.00,Snow,Light Snow,230,2013-02-28 08:53:00
4:26 AM,33.8,30.2,87,29.55,3.0,WSW,6.9,-,0.00,Snow,Light Snow,240,2013-02-28 09:26:00
4:32 AM,33.8,30.2,87,29.55,4.0,WSW,5.8,-,0.00,Snow,Light Snow,240,2013-02-28 09:32:00
4:43 AM,33.8,30.2,87,29.55,4.0,WSW,8.1,-,0.00,Snow,Light Snow,240,2013-02-28 09:43:00
4:53 AM,33.1,30.9,92,29.57,4.0,WSW,6.9,-,0.00,Snow,Light Snow,240,2013-02-28 09:53:00
5:00 AM,33.8,30.2,87,29.55,5.0,SW,5.8,-,0.00,Snow,Light Snow,230,2013-02-28 10:00:00
5:08 AM,33.8,30.2,87,29.55,5.0,WSW,6.9,-,0.00,Snow,Light Snow,240,2013-02-28 10:08:00
5:28 AM,33.8,30.2,87,29.56,5.0,WSW,4.6,-,0.00,Snow,Light Snow,240,2013-02-28 10:28:00
5:34 AM,33.8,30.2,87,29.56,5.0,WSW,9.2,-,0.00,Snow,Light Snow,240,2013-02-28 10:34:00
5:53 AM,32.0,30.0,92,29.58,4.0,WSW,10.4,-,0.00,Snow,Light Snow,240,2013-02-28 10:53:00
6:05 AM,32.0,30.2,93,29.56,2.0,SW,11.5,-,0.00,Snow,Light Snow,230,2013-02-28 11:05:00
6:14 AM,32.0,30.2,93,29.56,1.8,WSW,10.4,-,0.00,Snow,Light Snow,240,2013-02-28 11:14:00
6:22 AM,32.0,30.2,93,29.56,2.0,SW,9.2,-,0.00,Snow,Light Snow,230,2013-02-28 11:22:00
6:37 AM,32.0,30.2,93,29.57,1.8,WSW,8.1,-,0.00,Snow,Light Snow,240,2013-02-28 11:37:00
6:53 AM,32.0,30.0,92,29.59,1.2,WSW,9.2,-,0.01,Snow,Light Snow,240,2013-02-28 11:53:00
7:00 AM,32.0,30.2,93,29.57,1.0,WSW,9.2,-,0.00,Snow,Light Snow,240,2013-02-28 12:00:00
7:23 AM,32.0,30.2,93,29.57,0.8,WSW,8.1,-,0.00,Snow,Light Snow,240,2013-02-28 12:23:00
7:53 AM,32.0,30.0,92,29.59,0.8,SW,9.2,-,0.00,Snow,Light Snow,230,2013-02-28 12:53:00
8:16 AM,32.0,30.2,93,29.58,1.0,WSW,6.9,-,0.00,Snow,Light Snow,240,2013-02-28 13:16:00
8:35 AM,32.0,30.2,93,29.58,1.5,WSW,9.2,19.6,0.00,Snow,Light Snow,250,2013-02-28 13:35:00
8:47 AM,32.0,30.2,93,29.58,0.8,WSW,10.4,17.3,0.00,Snow,Light Snow,240,2013-02-28 13:47:00
8:53 AM,32.0,30.0,92,29.60,0.5,WSW,8.1,17.3,0.01,Fog-Snow,Snow,240,2013-02-28 13:53:00
9:21 AM,32.0,30.2,93,29.58,0.8,WSW,11.5,18.4,0.00,Snow,Light Snow,240,2013-02-28 14:21:00
9:31 AM,32.0,30.2,93,29.58,1.0,WSW,11.5,19.6,0.00,Snow,Light Snow,240,2013-02-28 14:31:00
9:41 AM,32.0,30.2,93,29.58,0.8,WSW,9.2,-,0.00,Snow,Light Snow,240,2013-02-28 14:41:00
9:53 AM,32.0,30.0,92,29.60,0.8,WSW,12.7,18.4,0.00,Snow,Light Snow,240,2013-02-28 14:53:00
10:15 AM,32.0,30.2,93,29.58,0.8,WSW,11.5,-,0.00,Snow,Light Snow,250,2013-02-28 15:15:00
10:53 AM,32.0,30.9,96,29.61,0.8,WSW,9.2,-,0.01,Snow,Light Snow,240,2013-02-28 15:53:00
11:02 AM,32.0,30.2,93,29.59,0.8,WSW,9.2,-,0.00,Snow,Light Snow,240,2013-02-28 16:02:00
11:19 AM,32.0,30.2,93,29.59,1.0,SW,8.1,-,0.00,Snow,Light Snow,230,2013-02-28 16:19:00
11:53 AM,33.1,30.0,89,29.62,1.2,WSW,11.5,-,0.00,Snow,Light Snow,240,2013-02-28 16:53:00
12:44 PM,33.8,30.2,87,29.59,2.5,WSW,10.4,17.3,0.00,Snow,Light Snow,250,2013-02-28 17:44:00
12:53 PM,33.1,30.0,89,29.61,3.0,WSW,12.7,18.4,0.00,Snow,Light Snow,250,2013-02-28 17:53:00
1:53 PM,33.1,30.9,92,29.62,5.0,WSW,10.4,-,0.00,,Overcast,250,2013-02-28 18:53:00
2:53 PM,33.1,30.9,92,29.63,5.0,WSW,8.1,-,N/A,,Overcast,240,2013-02-28 19:53:00
3:53 PM,33.1,30.9,92,29.65,5.0,WSW,6.9,-,N/A,,Overcast,250,2013-02-28 20:53:00
4:53 PM,33.1,30.9,92,29.67,5.0,WSW,8.1,-,N/A,,Overcast,250,2013-02-28 21:53:00
5:50 PM,33.8,30.2,87,29.67,5.0,WSW,5.8,-,N/A,,Overcast,250,2013-02-28 22:50:00
5:53 PM,33.1,30.9,92,29.70,5.0,WSW,5.8,-,N/A,,Overcast,250,2013-02-28 22:53:00
6:53 PM,33.1,30.9,92,29.73,8.0,West,4.6,-,N/A,,Overcast,260,2013-02-28 23:53:00
7:53 PM,33.1,30.9,92,29.75,9.0,NW,8.1,-,N/A,,Overcast,310,2013-03-01 00:53:00
7:57 PM,33.8,30.2,87,29.73,9.0,NW,8.1,-,N/A,,Overcast,310,2013-03-01 00:57:00
8:53 PM,33.1,30.9,92,29.77,10.0,NW,6.9,-,N/A,,Overcast,310,2013-03-01 01:53:00
9:34 PM,33.8,30.2,87,29.76,10.0,NW,5.8,-,N/A,,Overcast,310,2013-03-01 02:34:00
9:41 PM,33.8,30.2,87,29.76,8.0,NW,6.9,-,N/A,,Overcast,310,2013-03-01 02:41:00
9:53 PM,32.0,30.9,96,29.78,9.0,NW,5.8,-,N/A,,Overcast,320,2013-03-01 02:53:00
10:05 PM,32.0,30.2,93,29.76,10.0,NNW,6.9,-,N/A,,Overcast,330,2013-03-01 03:05:00
10:53 PM,32.0,28.9,88,29.79,10.0,NW,6.9,-,N/A,,Overcast,320,2013-03-01 03:53:00
11:35 PM,32.0,28.4,87,29.78,10.0,NW,9.2,-,N/A,,Overcast,320,2013-03-01 04:35:00
11:53 PM,32.0,27.0,82,29.80,10.0,NW,8.1,-,N/A,,Overcast,320,2013-03-01 04:53:00